• Em Portugal
  • Lista de países
  • Para 7 dias
  • Temperatura da água
  • Mapas de satélite
  • Mapa do tempo
  • Widgets de tempo
  • user-avatar
    Iniciar Sessão

    Previsão horária em Hirocastra

    Hoje, 26 Setembro, Quarta-feira

    Tempo Temperatura Precipitação Vento Pressão Humidade
    00:00 +6°C° 0 mm 4 m/s 657 mmHg 37%
    01:00 +6°C° 0 mm 4 m/s 657 mmHg 37%
    02:00 +5°C° 0 mm 4 m/s 656 mmHg 38%
    03:00 +5°C° 0 mm 4 m/s 656 mmHg 39%
    04:00 +4°C° 0 mm 4 m/s 656 mmHg 41%
    05:00 +5°C° 0 mm 4 m/s 657 mmHg 42%
    06:00 +5°C° 0 mm 4 m/s 657 mmHg 42%
    07:00 +5°C° 0 mm 4 m/s 657 mmHg 43%
    08:00 +6°C° 0 mm 4 m/s 657 mmHg 42%
    09:00 +7°C° 0 mm 4 m/s 658 mmHg 41%
    10:00 +8°C° 0 mm 4 m/s 658 mmHg 39%
    11:00 +10°C° 0 mm 4 m/s 658 mmHg 38%
    12:00 +11°C° 0 mm 4 m/s 658 mmHg 38%
    13:00 +12°C° 0 mm 4 m/s 658 mmHg 37%
    14:00 +11°C° 0 mm 4 m/s 658 mmHg 37%
    15:00 +11°C° 0 mm 4 m/s 658 mmHg 37%
    16:00 +11°C° 0 mm 4 m/s 658 mmHg 37%
    17:00 +8°C° 0 mm 4 m/s 658 mmHg 39%
    18:00 +6°C° 0 mm 4 m/s 658 mmHg 42%
    19:00 +5°C° 0 mm 4 m/s 658 mmHg 44%
    20:00 +4°C° 0 mm 4 m/s 658 mmHg 44%
    21:00 +4°C° 0 mm 4 m/s 658 mmHg 44%
    22:00 +3°C° 0 mm 4 m/s 658 mmHg 44%
    23:00 +3°C° 0 mm 4 m/s 658 mmHg 45%

    Amanhã, 27 Setembro, Quinta-feira

    Tempo Temperatura Precipitação Vento Pressão Humidade
    00:00 +2°C° 0 mm 3 m/s 658 mmHg 46%
    01:00 +2°C° 0 mm 3 m/s 658 mmHg 47%
    02:00 +1°C° 0 mm 3 m/s 657 mmHg 49%
    03:00 +1°C° 0 mm 3 m/s 657 mmHg 51%
    04:00 0°C° 0 mm 4 m/s 657 mmHg 53%
    05:00 0°C° 0 mm 4 m/s 657 mmHg 51%
    06:00 +1°C° 0 mm 4 m/s 657 mmHg 49%
    07:00 +3°C° 0 mm 4 m/s 657 mmHg 47%
    08:00 +5°C° 0 mm 4 m/s 657 mmHg 39%
    09:00 +7°C° 0 mm 4 m/s 658 mmHg 31%
    10:00 +10°C° 0 mm 4 m/s 658 mmHg 23%
    11:00 +11°C° 0 mm 4 m/s 658 mmHg 22%
    12:00 +12°C° 0 mm 4 m/s 658 mmHg 21%
    13:00 +13°C° 0 mm 4 m/s 658 mmHg 19%
    14:00 +13°C° 0 mm 4 m/s 657 mmHg 20%
    15:00 +13°C° 0 mm 4 m/s 657 mmHg 22%
    16:00 +13°C° 0 mm 4 m/s 657 mmHg 23%
    17:00 +11°C° 0 mm 3 m/s 656 mmHg 25%
    18:00 +10°C° 0 mm 3 m/s 656 mmHg 27%
    19:00 +8°C° 0 mm 3 m/s 655 mmHg 29%
    20:00 +8°C° 0 mm 3 m/s 655 mmHg 30%
    21:00 +8°C° 0 mm 3 m/s 655 mmHg 31%
    22:00 +7°C° 0 mm 3 m/s 655 mmHg 31%
    23:00 +7°C° 0.1 mm 3 m/s 655 mmHg 35%

    Depois de amanhã, 28 Setembro, Sexta-feira

    Tempo Temperatura Precipitação Vento Pressão Humidade
    00:00 +7°C° 0.1 mm 3 m/s 654 mmHg 39%
    01:00 +6°C° 0.1 mm 4 m/s 654 mmHg 42%
    02:00 +6°C° 0 mm 4 m/s 653 mmHg 42%
    03:00 +6°C° 0 mm 4 m/s 653 mmHg 42%
    04:00 +6°C° 0 mm 4 m/s 652 mmHg 42%
    05:00 +6°C° 0 mm 4 m/s 652 mmHg 41%
    06:00 +6°C° 0 mm 4 m/s 652 mmHg 40%
    07:00 +7°C° 0 mm 4 m/s 652 mmHg 39%
    08:00 +10°C° 0 mm 3 m/s 652 mmHg 37%
    09:00 +12°C° 0 mm 3 m/s 653 mmHg 34%
    10:00 +14°C° 0 mm 3 m/s 653 mmHg 32%
    11:00 +16°C° 0 mm 3 m/s 653 mmHg 32%
    12:00 +17°C° 0 mm 2 m/s 653 mmHg 33%
    13:00 +19°C° 0 mm 2 m/s 653 mmHg 33%
    14:00 +18°C° 0 mm 2 m/s 653 mmHg 34%
    15:00 +18°C° 0 mm 3 m/s 652 mmHg 35%
    16:00 +18°C° 0 mm 3 m/s 652 mmHg 36%
    17:00 +16°C° 0 mm 3 m/s 652 mmHg 40%
    18:00 +13°C° 0 mm 3 m/s 651 mmHg 44%
    19:00 +12°C° 0 mm 3 m/s 651 mmHg 48%
    20:00 +11°C° 0 mm 3 m/s 651 mmHg 49%
    21:00 +10°C° 0 mm 3 m/s 651 mmHg 51%
    22:00 +10°C° 0 mm 3 m/s 651 mmHg 52%
    23:00 +10°C° 0 mm 3 m/s 650 mmHg 54%

    29 Setembro, Sábado

    Tempo Temperatura Precipitação Vento Pressão Humidade
    00:00 +9°C° 0 mm 3 m/s 650 mmHg 55%
    01:00 +9°C° 0 mm 2 m/s 650 mmHg 57%
    02:00 +9°C° 0.1 mm 2 m/s 650 mmHg 58%
    03:00 +9°C° 0.1 mm 3 m/s 649 mmHg 60%
    04:00 +8°C° 0.1 mm 3 m/s 649 mmHg 61%
    05:00 +9°C° 0 mm 3 m/s 649 mmHg 60%
    06:00 +10°C° 0 mm 3 m/s 649 mmHg 59%
    07:00 +10°C° 0 mm 3 m/s 649 mmHg 58%
    08:00 +12°C° 0 mm 3 m/s 650 mmHg 54%
    09:00 +14°C° 0 mm 3 m/s 650 mmHg 50%
    10:00 +17°C° 0 mm 2 m/s 651 mmHg 46%
    11:00 +18°C° 0 mm 3 m/s 650 mmHg 44%
    12:00 +19°C° 0 mm 3 m/s 650 mmHg 42%
    13:00 +20°C° 0 mm 3 m/s 650 mmHg 39%
    14:00 +20°C° 0 mm 4 m/s 650 mmHg 41%
    15:00 +19°C° 0 mm 4 m/s 650 mmHg 42%
    16:00 +19°C° 0 mm 5 m/s 650 mmHg 44%
    17:00 +17°C° 0 mm 4 m/s 650 mmHg 49%
    18:00 +15°C° 0 mm 4 m/s 650 mmHg 53%
    19:00 +13°C° 0 mm 4 m/s 650 mmHg 58%
    20:00 +12°C° 0 mm 4 m/s 650 mmHg 60%
    21:00 +12°C° 0 mm 3 m/s 650 mmHg 62%
    22:00 +11°C° 0 mm 3 m/s 650 mmHg 63%
    23:00 +11°C° 0 mm 3 m/s 650 mmHg 64%

    30 Setembro, Domingo

    Tempo Temperatura Precipitação Vento Pressão Humidade
    00:00 +10°C° 0 mm 3 m/s 649 mmHg 64%
    01:00 +10°C° 0 mm 2 m/s 649 mmHg 65%
    02:00 +10°C° 0 mm 2 m/s 649 mmHg 62%
    03:00 +9°C° 0 mm 2 m/s 649 mmHg 60%
    04:00 +9°C° 0 mm 2 m/s 649 mmHg 57%
    05:00 +10°C° 0 mm 2 m/s 650 mmHg 53%
    06:00 +10°C° 0 mm 2 m/s 650 mmHg 48%
    07:00 +12°C° 0 mm 2 m/s 650 mmHg 43%
    08:00 +14°C° 0 mm 2 m/s 651 mmHg 39%
    09:00 +16°C° 0 mm 2 m/s 651 mmHg 36%
    10:00 +18°C° 0 mm 2 m/s 652 mmHg 32%
    11:00 +19°C° 0 mm 2 m/s 652 mmHg 32%
    12:00 +20°C° 0 mm 2 m/s 652 mmHg 32%
    13:00 +21°C° 0 mm 2 m/s 652 mmHg 32%
    14:00 +20°C° 0 mm 2 m/s 652 mmHg 36%
    15:00 +19°C° 0 mm 3 m/s 652 mmHg 39%
    16:00 +18°C° 0 mm 3 m/s 652 mmHg 43%
    17:00 +16°C° 0.1 mm 3 m/s 652 mmHg 49%
    18:00 +15°C° 0.1 mm 2 m/s 652 mmHg 56%
    19:00 +13°C° 0.1 mm 2 m/s 652 mmHg 63%
    20:00 +12°C° 0.1 mm 2 m/s 651 mmHg 66%
    21:00 +10°C° 0.1 mm 2 m/s 651 mmHg 70%
    22:00 +9°C° 0.1 mm 2 m/s 651 mmHg 73%
    23:00 +9°C° 0.3 mm 2 m/s 651 mmHg 75%

    1 Outubro, Segunda-feira

    Tempo Temperatura Precipitação Vento Pressão Humidade
    00:00 +9°C° 0.3 mm 2 m/s 651 mmHg 77%
    01:00 +8°C° 0.3 mm 2 m/s 650 mmHg 80%
    02:00 +8°C° 0.4 mm 2 m/s 650 mmHg 81%
    03:00 +8°C° 0.4 mm 2 m/s 650 mmHg 81%
    04:00 +8°C° 0.4 mm 2 m/s 650 mmHg 82%
    05:00 +8°C° 0.3 mm 2 m/s 650 mmHg 80%
    06:00 +9°C° 0.3 mm 2 m/s 650 mmHg 78%
    07:00 +9°C° 0.3 mm 2 m/s 650 mmHg 76%
    08:00 +12°C° 0.4 mm 2 m/s 650 mmHg 70%
    09:00 +14°C° 0.4 mm 2 m/s 651 mmHg 65%
    10:00 +15°C° 0.4 mm 2 m/s 651 mmHg 59%
    11:00 +16°C° 0.6 mm 2 m/s 651 mmHg 58%
    12:00 +16°C° 0.6 mm 3 m/s 651 mmHg 57%
    13:00 +16°C° 0.6 mm 3 m/s 650 mmHg 56%
    14:00 +16°C° 0.7 mm 2 m/s 650 mmHg 59%
    15:00 +15°C° 0.7 mm 2 m/s 650 mmHg 61%
    16:00 +15°C° 0.7 mm 2 m/s 649 mmHg 63%
    17:00 +13°C° 0.3 mm 2 m/s 649 mmHg 69%
    18:00 +12°C° 0.3 mm 1 m/s 649 mmHg 75%
    19:00 +11°C° 0.3 mm 1 m/s 649 mmHg 81%
    20:00 +10°C° 0 mm 1 m/s 649 mmHg 82%
    21:00 +10°C° 0 mm 1 m/s 649 mmHg 84%
    22:00 +10°C° 0 mm 1 m/s 649 mmHg 85%
    23:00 +8°C° 0.1 mm 2 m/s 648 mmHg 86%
    Mostrar mais